Regional Weather Roundup
Issued by NWS

Home | Current Version | Previous Version | Graphics & Text | Print | Product List | Glossary On
Versions: 1 2 3 4 5 6 7 8 9 10 11 12 13 14 15 16 17 18 19 20 21 22 23 24 25 26 27
000
ASUS45 KCYS 182310
RWRWY

WYOMING REGIONAL WEATHER ROUNDUP
NATIONAL WEATHER SERVICE CHEYENNE WY
500 PM MDT FRI APR 18 2014

NOTE:  "FAIR" INDICATES FEW OR NO CLOUDS BELOW 12,000 FEET
WITH NO SIGNIFICANT WEATHER AND/OR OBSTRUCTIONS TO VISIBILITY.

WYZ001-190000-
YELLOWSTONE NATIONAL PARK

CITY           SKY/WX    TMP DP  RH WIND       PRES   REMARKS
LK YELLOWSTONE   N/A     37  27  67 VRB7G18   29.91F WCI  32
W YELLOWSTONE  NOT AVBL

$$
WYZ002>013-054>058-071-098>099-190000-
NORTHERN WYOMING

CITY           SKY/WX    TMP DP  RH WIND       PRES   REMARKS
JACKSON        SUNNY     46  30  53 S20G28    29.93F
CODY           MOSUNNY   57  27  30 SW13G28   29.73F
GREYBULL       CLOUDY    65  37  35 NW15      29.68S
WORLAND        CLOUDY    66  29  24 SW30      29.69F
SHERIDAN         N/A     63  25  23 SW28G40     N/A
BUFFALO        CLOUDY    65  36  34 SE8       29.71F
GILLETTE       CLOUDY    63  39  41 NW21G31   29.70R
HULETT         FAIR      70  36  28 NW16G24   29.65
NEWCASTLE      FAIR      64  36  34 MISG      29.68

$$
WYZ014>020-022>026-101>103-190000-
CENTRAL WYOMING

CITY           SKY/WX    TMP DP  RH WIND       PRES   REMARKS
BIG PINEY      CLOUDY    50  30  46 W16G31    30.00R
PINEDALE       CLOUDY    46  34  61 NW10      29.99R
DUBOIS         FAIR      45  23  42 W25G36    29.89S
LANDER         LGT RAIN  56  37  49 SW25G44   29.78F
RIVERTON       PTSUNNY   60  28  29 W30G36    29.83R
CASPER         PTSUNNY   71  25  17 W36G47    29.76R
DOUGLAS        CLOUDY    71  27  19 SW22G32   29.75F

$$
WYZ021-027>030-104>119-190000-
SOUTHERN WYOMING

CITY           SKY/WX    TMP DP  RH WIND       PRES   REMARKS
EVANSTON       CLOUDY    55  30  38 W25G32    30.01S
KEMMERER       MOCLDY    50  34  53 W15G26    30.01F
FORT BRIDGER   FAIR      61  32  34 NW28G36   30.02R
ROCK SPRINGS   CLOUDY    57  32  38 NW16      29.97R
DIXON          FAIR      66  22  18 SW20G33   29.96R
RAWLINS        PTSUNNY   67  14  13 SW35G40   29.89S
SARATOGA       MOCLDY    64  23  20 W22G32    29.95S
LARAMIE        PTSUNNY   64  19  17 SW22G31   29.92S
CHEYENNE       PTSUNNY   71  24  17 SW18G25   29.89F
TORRINGTON     PTSUNNY   77  31  18 S23G31    29.73F
PINE BLUFFS    FAIR      73  27  17 S13G22    29.86S

$$



USA.gov is the U.S. government's official web portal to all federal, state and local government web resources and services.